Погода Алтай

Погода Алтай : погода сейчас, прогноз погоды и архив. Всё, что Вы хотите узнать о погоде Алтай!

Поиск расширенной информации на нашем сайте:

Другие новости

Новости СМИ2

Главная страница сайта

Новости сайта

02.10.2013

Напоминаем, что на нашем новом сайте вы можете получить высокодетализированные прогнозы погоды по пунктам России, СНГ и мира (включающие важные для авиации метеовеличины, такие как направление и скорость ветра, видимость, явления погоды, количество и форма облачности, нижняя и верхняя граница облачности), а также ознакомиться с разнообразными материалами по авиационной метеорологии и подборкой полезных ссылок на эту тему.

Сайт Метеоцентр.Азия посвящён разработке технологий оптимизации авиаметеорологического обслуживания, включая проектирование и перспективное создание нескольких автоматизированных авиаметеорологических систем:
- система выпуска высокодетальных прогностических карт явлений погоды для нижнего воздушного пространства по России и ближнему зарубежью;
- система верификации прогнозов TAF (выпускаемых синоптиками официальных АМСГ РФ и ближнего зарубежья) и AUTOTAF (выпускаемых сайтом Метеоцентр.Азия) - выявление ошибок, онлайн-сопоставление с фактической погодой METAR, автоматическое внесение коррективов в прогнозы при резком отклонении фактической погоды от прогноза, подсчёт оправдываемости прогнозов по элементам и в целом;
- система обработки, анализа и отображения авиаметеорологической информации для применения провайдерами метеорологической информации.


Погода Алтай - сегодня

Время (UTC), дата Ветер
(°,м/с) 
Видим.   Явления Облачность Т
(°С)
Тd
(°С)
f(%) Тe
(°С)
Pmin
(гПа)
dP
(гПа)
Po
(мм)
O2
(г/м3)
Тmin Tmax R s Состояние
почвы
09 17.01.17 240 (ЮЗ) 20000 м  [диам. изморози 2 мм]  6/0 верхняя 
[Ci sp]
-12.4 -14.1 87 -16  1031.6  0.3  770  327           
12 17.01.17 250 (З) н/о    н/о 
-13.4 -15.1 87 -17  1032.1  0.4  771  328           
15 17.01.17 250 (З) 20000 м    ясно 
-14.9 -16.7 86 -17  1032.3  0.2  771  330    -12       
18 17.01.17 240 (ЮЗ) 20000 м    ясно 
-16.4 -18 87 -19  1032.5  0.2  771  332           
21 17.01.17 250 (З) 20000 м    ясно 
-16.7 -18.5 86 -19  1032.6  0.1  771  333           
00 18.01.17 240 (ЮЗ) 20000 м  [диам. изморози 2 мм]  ясно 
-17.2 -18.9 87 -20  1032.3  -0.3  771  333           
03 18.01.17 220 (ЮЗ) 20000 м  [диам. изморози 2 мм]  ясно 
-18.9 -20.9 84 -19  1031.8  -0.6  770  335  -19      46  неравномерный
сухой снег
100% 
06 18.01.17 240 (ЮЗ) н/о    н/о 
-17.3 -19.2 85 -17  1031.7  0.1  770  333  -19.4         
09 18.01.17 190 (Ю) 20000 м  [диам. изморози 1 мм]  8/0 верхняя 
[Ci sp]
-16.1 -18 85 -16  1031.2  -0.4  770  331           
12 18.01.17 180 (Ю) н/о    н/о 
-17.7 -19.5 86 -18  1030.8  -0.5  770  333           
15 18.01.17 200 (Ю) 20000 м  [диам. изморози 1 мм]  ясно 
-19.4 -21.4 84 -20  1030  -0.8  769  335    -16       
18 18.01.17 180 (Ю) 20000 м  [диам. изморози 2 мм]  ясно 
-19.2 -21.1 85 -22  1028.7  -1.2  768  335           
21 18.01.17 190 (Ю) 20000 м  [диам. изморози 3 мм]  ясно 
-19.3 -21.3 84 -22  1027  -1.7  767  334           
00 19.01.17 190 (Ю) 20000 м  [диам. изморози 3 мм]  ясно 
-18.6 -20.6 84 -19  1025.4  -1.5  766  333           
03 19.01.17 210 (ЮЗ) 20000 м  [диам. изморози 3 мм]  ясно 
-17.9 -19.7 86 -20  1023.6  -1.8  764  331  -20.4      46  неравномерный
сухой снег
100% 
06 19.01.17 210 (ЮЗ) н/о    н/о 
-16.8 -18.6 86 -21  1022.6  -1  764  329           
09 19.01.17 190 (Ю) 20000 м  [диам. изморози 3 мм]  9/0 верхняя 
[Ci sp]
-15.5 -17.3 86 -18  1021.2  -1.4  763  327           
12 19.01.17 200 (Ю) н/о    н/о 
-15.5 -17.2 87 -19  1019.3  -1.8  761  327           
15 19.01.17 210 (ЮЗ) 20000 м  [диам. изморози 3 мм]  6/0 средняя 
[Ac As]
-15.2 -16.8 88 -19  1017.4  -2  760  326    -15.1       
18 19.01.17 210 (ЮЗ) 20000 м  [диам. изморози 2 мм]  4/0 средняя 
[Ac trans]
-16.4 -18.1 87 -20  1014.9  -2.5  758  326           
21 19.01.17 200 (Ю) 20000 м  [диам. изморози 4 мм]  ясно 
-17.8 -19.6 86 -22  1012.6  -2.3  756  327           
00 20.01.17 190 (Ю) 20000 м  [диам. изморози 4 мм]  ясно 
-18 -19.9 85 -22  1009.6  -2.9  754  327           
03 20.01.17 200 (Ю) 20000 м  [диам. изморози 4 мм]  9/0 средняя, верхняя 
[Ac trans|Ci sp]
-17.7 -19.7 84 -24  1006.6  -3  752  325  -18.2      46  неравномерный
сухой снег
100% 
06 20.01.17 200 (Ю) н/о    н/о 
-15.8 -17.8 85 -22  1004  -2.6  750  322           
09 20.01.17 210 (ЮЗ) 5{12}  4000 м  слаб. ливневой снег  10/10 600 м кучево-дожд. 
[Cb calv]
-15.3 -17.5 83 -21  1002.2  -1.8  748  321           
Время (UTC), дата Ветер
(°,м/с) 
Видим.   Явления Облачность Т
(°С)
Тd
(°С)
f(%) Тe
(°С)
Pmin
(гПа)
dP
(гПа)
Po
(мм)
O2
(г/м3)
Тmin Tmax R s Состояние
почвы

Для получения пояснительной информации подведите курсор к названию столбца.

ПОГОДА Алтай - архив

Всё, что Вы хотите узнать о погоде Алтай - удобно и подробно!

Выберите нужную дату (начиная с 1 января 2015* года) и нажмите кнопку "Найти".
Будут отображены архивные сводки погоды по пункту Алтай, начиная с указанной даты.


Отображать данные в формате CSV (для использования в таблицах Excel)


Внимание! Наш архив погоды предназначен исключительно для личного некоммерческого использования в познавательных целях. Если Вам необходимы официальные справки о состоянии погоды (для производственных, юридических, коммерческих и т.п. целей), обращайтесь в органы Росгидромета.

*Примечание: данная дата относится к архиву по метеостанциям СССР (Россия, СНГ, Балтия).
Архив по метеостанциям Зарубежной Европы и Азии (кроме Китая) хранится 10 дней, по другим регионам земного шара (Китай, Африка, Америка, Австралия, Океания) - 1 день.

Алтай - район местоположения метеостанции


Название, широта, долгота, высота метеостанции:
Алтай 60.3°ш. 68.9°д. 30 м над ур. моря [Российская Федерация]

Дополнительная информация

В oтличие oт бoльшинства пoгoдных сайтoв мы публикуем пoдрoбную метеoинфoрмацию в детальнoм прoфессиoнальнoм фoрмате.

Характеристики температуры и влажнoсти вoздуха измеряются на высoте 2 м в тени вдали oт зданий и деревьев.
Скoрoсть ветра измеряется на высoте 10 м (на урoвне рoста челoвека скoрoсть ветра ниже в 1.5-2 раза). Если метеoстанция нахoдится в гoрoде или в лесу, тo скoрoсть ветра занижена на 2-4 м/с пo сравнению с oткрытым местoм. Скoрoсть ветра над акватoриями крупных рек и oзёр, а также на вершинах хoлмoв на 2-5 м/с выше, чем в oбычных услoвиях.
Атмoсфернoе давление в разных тoчках местнoсти мoжет значительнo oтличаться oт давления на метеoстанции, в зависимoсти oт услoвий рельефа (при пoдъёме на 10 м давление пoнижается примернo на 1 мм рт.ст.).